Location: Amsterdam
(42.9386°N, 74.1886°W)
Time: 13:57:26
(UTC-04:00)

Envisat - Visible Passes

Search period start: 25 March 2019 00:00
Search period end: 04 April 2019 00:00
Orbit: 764 x 766 km, 98.2° (Epoch: 24 March)

Date Brightness Start Highest point End Pass type
(mag) Time Alt. Az. Time Alt. Az. Time Alt. Az.
25 Mar 6.2 21:11:44 10° WSW 21:13:04 11° W 21:14:24 10° WNW visible
26 Mar 5.4 20:31:46 10° SSW 20:35:53 25° W 20:40:02 10° NW visible
27 Mar 3.9 19:53:59 10° S 19:58:56 54° W 20:03:55 10° NNW visible
28 Mar 5.9 20:59:02 10° WSW 21:01:42 14° W 21:04:22 10° WNW visible
29 Mar 5.0 20:20:07 10° SSW 20:24:35 31° W 20:29:06 10° NNW visible
30 Mar 3.5 19:42:38 10° S 19:47:41 68° WSW 19:52:46 10° NNW visible
31 Mar 5.8 20:46:56 10° SW 20:50:21 18° W 20:53:47 10° NW visible
01 Apr 4.6 20:08:35 10° SSW 20:13:18 39° W 20:18:04 10° NNW visible
03 Apr 5.5 20:35:04 10° SW 20:39:01 23° W 20:43:00 10° NW visible
